Madisonville, KY

2:23 PM CDT on July 22, 2017 (GMT -0500)
Madisonville

Weather History for K2I0 - March, 2013

Change the Weather History Date:

Friday, March 29, 2013

  Actual Average (KOWB) Record (KOWB)
Temperature  
Mean Temperature 48 °F -  
Max Temperature 52 °F 64 °F 81 °F (1968)
Min Temperature 43 °F 44 °F 24 °F (1955)
Degree Days  
Heating Degree Days 18    
Moisture  
Dew Point 44 °F    
Average Humidity 89    
Maximum Humidity 100    
Minimum Humidity 55    
Precipitation  
Precipitation 0.11 in - - ()
Sea Level Pressure  
Sea Level Pressure 30.26 in    
Wind  
Wind Speed 3 mph (ESE)    
Max Wind Speed 7 mph    
Max Gust Speed -    
Visibility 8 miles    
Events Rain    
Averages and records for this station are not official NWS values.
T = Trace of Precipitation, MM = Missing Value Source: NWS Daily Summary

Daily Weather History Graph

Daily Weather History Graph

Search for Another Location

Airport or City:

Trip Planner

Search our weather history database for the weather conditions in past years. The results will help you decide how hot, cold, wet, or windy it might be!

Date:

Astronomy

Mar. 29, 2013 Rise Set
Actual Time 6:39 AM CDT 7:09 PM CDT
Civil Twilight 6:13 AM CDT 7:36 PM CDT
Nautical Twilight 5:42 AM CDT 8:06 PM CDT
Astronomical Twilight 5:10 AM CDT 8:38 PM CDT
Moon 10:05 PM CDT (3/29) 7:51 AM CDT (3/29)
Length of Visible Light 13h 23m
Length of Day
12h 30m
Waning Gibbous, 93% of the Moon is Illuminated
Mar 29
Waning Gibbous
Apr 2
Last Quarter
Apr 10
New
Apr 18
First Quarter
Apr 25
Full

Hourly Weather History & Observations

Time (CDT) Temp. Windchill Dew Point Humidity Pressure Visibility Wind Dir Wind Speed Gust Speed Precip Events Conditions
12:15 AM 47.3 °F - 39.2 °F 73% 30.30 in 10.0 mi Calm Calm - N/A   Drizzle
12:35 AM 48.4 °F - 34.2 °F 58% 30.30 in 10.0 mi SE 3.5 mph - N/A   Overcast
12:55 AM 47.8 °F - 35.1 °F 61% 30.29 in 10.0 mi East 5.8 mph - N/A   Overcast
1:15 AM 47.3 °F - 35.1 °F 62% 30.29 in 10.0 mi East 3.5 mph - N/A   Overcast
1:35 AM 47.3 °F - 34.5 °F 61% 30.29 in 10.0 mi ESE 4.6 mph - N/A   Overcast
1:55 AM 47.3 °F - 33.1 °F 58% 30.29 in 10.0 mi ESE 3.5 mph - N/A   Overcast
2:15 AM 47.7 °F - 32.2 °F 55% 30.29 in 10.0 mi ESE 3.5 mph - N/A   Overcast
2:35 AM 46.4 °F 44.3 °F 36.3 °F 68% 30.29 in 10.0 mi East 4.6 mph - N/A Rain Light Rain
2:55 AM 45.7 °F 44.4 °F 37.0 °F 72% 30.28 in 10.0 mi SE 3.5 mph - N/A   Overcast
3:15 AM 46.4 °F - 36.5 °F 68% 30.29 in 10.0 mi Calm Calm - N/A   Overcast
3:35 AM 45.0 °F - 39.6 °F 81% 30.29 in 10.0 mi Calm Calm - N/A   Light Drizzle
3:55 AM 45.1 °F - 40.5 °F 84% 30.29 in 10.0 mi Calm Calm - N/A   Overcast
4:15 AM 45.9 °F - 40.5 °F 81% 30.29 in 10.0 mi Calm Calm - N/A Rain Light Rain
4:35 AM 44.8 °F 43.3 °F 39.9 °F 83% 30.29 in 10.0 mi NE 3.5 mph - N/A Rain Light Rain
4:55 AM 44.6 °F 42.2 °F 41.4 °F 88% 30.28 in 10.0 mi East 4.6 mph - N/A Rain Light Rain
5:15 AM 44.8 °F 42.4 °F 39.0 °F 80% 30.28 in 10.0 mi ESE 4.6 mph - N/A Rain Rain
5:35 AM 44.2 °F 42.7 °F 39.7 °F 84% 30.28 in 10.0 mi SE 3.5 mph - N/A Rain Rain
5:55 AM 44.6 °F - 39.0 °F 81% 30.29 in 10.0 mi Calm Calm - N/A   Drizzle
6:15 AM 43.9 °F 42.3 °F 40.3 °F 87% 30.29 in 10.0 mi South 3.5 mph - N/A Rain Rain
6:35 AM 44.1 °F - 40.1 °F 86% 30.29 in 10.0 mi Calm Calm - N/A   Drizzle
6:55 AM 43.7 °F - 41.2 °F 91% 30.30 in 10.0 mi Calm Calm - 0.01 in Rain Rain
7:15 AM 43.7 °F - 41.4 °F 91% 30.30 in 10.0 mi Calm Calm - 0.01 in Rain Light Rain
7:35 AM 43.7 °F - 41.7 °F 93% 30.31 in 5.0 mi Calm Calm - 0.04 in Rain Rain
7:55 AM 43.7 °F 41.1 °F 42.1 °F 94% 30.31 in 7.0 mi SE 4.6 mph - 0.05 in Rain Light Rain
8:15 AM 43.7 °F 40.3 °F 41.9 °F 93% 30.30 in 7.0 mi SE 5.8 mph - 0.02 in Rain Light Rain
8:35 AM 44.1 °F 40.8 °F 42.4 °F 94% 30.30 in 7.0 mi SE 5.8 mph - 0.02 in Rain Light Rain
8:55 AM 44.2 °F 41.0 °F 42.8 °F 95% 30.29 in 10.0 mi SE 5.8 mph - 0.02 in Rain Rain
9:15 AM 44.8 °F 43.3 °F 43.5 °F 95% 30.29 in 7.0 mi SSE 3.5 mph - 0.01 in Rain Light Rain
9:35 AM 45.3 °F 43.0 °F 44.4 °F 97% 30.29 in 7.0 mi SE 4.6 mph - 0.02 in Rain Light Rain
9:55 AM 45.5 °F 44.2 °F 44.6 °F 97% 30.30 in 7.0 mi SSE 3.5 mph - 0.03 in Rain Light Rain
10:15 AM 45.9 °F 43.6 °F 44.8 °F 96% 30.30 in 7.0 mi SSE 4.6 mph - N/A Rain Rain
10:35 AM 45.9 °F 43.6 °F 45.1 °F 97% 30.29 in 7.0 mi SSE 4.6 mph - N/A   Drizzle
10:55 AM 46.4 °F 44.3 °F 45.5 °F 97% 30.29 in 7.0 mi SSE 4.6 mph - N/A   Overcast
11:15 AM 46.9 °F - 46.0 °F 97% 30.29 in 10.0 mi SSE 4.6 mph - N/A   Light Drizzle
11:55 AM 48.4 °F - 47.5 °F 97% 30.28 in 5.0 mi SSE 4.6 mph - N/A   Overcast
12:15 PM 48.4 °F - 47.1 °F 95% 30.28 in 7.0 mi SE 3.5 mph - N/A   Overcast
12:35 PM 48.7 °F - 47.1 °F 94% 30.27 in 10.0 mi SSE 5.8 mph - N/A   Overcast
12:55 PM 48.7 °F - 46.8 °F 93% 30.27 in 10.0 mi SSE 5.8 mph - N/A   Overcast
1:15 PM 48.7 °F - 47.3 °F 95% 30.26 in 7.0 mi SSE 4.6 mph - N/A   Overcast
1:35 PM 49.1 °F - 48.0 °F 96% 30.26 in 5.0 mi SSE 5.8 mph - N/A   Overcast
1:55 PM 49.1 °F - 47.5 °F 94% 30.25 in 5.0 mi SSE 5.8 mph - N/A   Overcast
2:15 PM 49.3 °F - 47.8 °F 95% 30.24 in 10.0 mi SSE 4.6 mph - N/A   Overcast
2:35 PM 49.8 °F - 48.4 °F 95% 30.24 in 5.0 mi SSE 5.8 mph - N/A   Overcast
2:55 PM 49.6 °F - 48.0 °F 94% 30.23 in 5.0 mi SSE 5.8 mph - N/A   Overcast
3:15 PM 50.0 °F - 48.2 °F 94% 30.23 in 7.0 mi SE 4.6 mph - N/A   Overcast
3:35 PM 51.1 °F - 48.6 °F 91% 30.22 in 10.0 mi Calm Calm - N/A   Overcast
3:55 PM 51.8 °F - 48.6 °F 89% 30.22 in 10.0 mi South 3.5 mph - N/A   Overcast
4:15 PM 51.6 °F - 48.2 °F 88% 30.21 in 10.0 mi ESE 3.5 mph - N/A   Overcast
4:35 PM 52.2 °F - 48.4 °F 87% 30.21 in 10.0 mi East 3.5 mph - N/A   Overcast
4:55 PM 52.0 °F - 48.4 °F 88% 30.21 in 10.0 mi Calm Calm - N/A   Overcast
5:15 PM 51.3 °F - 49.1 °F 92% 30.21 in 10.0 mi NE 5.8 mph - N/A   Overcast
5:35 PM 51.3 °F - 49.1 °F 92% 30.21 in 10.0 mi East 5.8 mph - N/A   Overcast
5:55 PM 50.9 °F - 49.1 °F 94% 30.22 in 10.0 mi East 5.8 mph - N/A   Overcast
6:15 PM 50.7 °F - 49.1 °F 94% 30.22 in 10.0 mi ENE 5.8 mph - N/A   Overcast
6:35 PM 50.4 °F - 49.1 °F 95% 30.22 in 10.0 mi East 6.9 mph - N/A   Overcast
6:55 PM 50.0 °F - 48.6 °F 95% 30.22 in 7.0 mi ENE 5.8 mph - N/A   Overcast
7:15 PM 50.0 °F - 48.7 °F 95% 30.23 in 7.0 mi East 3.5 mph - N/A   Overcast
7:35 PM 49.6 °F - 48.6 °F 96% 30.23 in 7.0 mi ESE 3.5 mph - N/A   Overcast
7:55 PM 49.6 °F - 48.6 °F 96% 30.23 in 7.0 mi East 3.5 mph - N/A   Overcast
8:15 PM 49.5 °F - 48.6 °F 97% 30.23 in 7.0 mi Calm Calm - N/A   Overcast
8:35 PM 49.3 °F - 48.4 °F 97% 30.23 in 7.0 mi East 3.5 mph - N/A   Overcast
8:55 PM 49.3 °F - 48.6 °F 97% 30.24 in 7.0 mi Calm Calm - N/A   Overcast
9:15 PM 49.1 °F - 48.4 °F 97% 30.24 in 5.0 mi East 3.5 mph - N/A   Overcast
9:35 PM 49.1 °F - 48.2 °F 97% 30.24 in 7.0 mi Calm Calm - N/A   Overcast
9:55 PM 49.1 °F - 48.2 °F 97% 30.24 in 7.0 mi Calm Calm - N/A   Overcast
10:15 PM 48.6 °F - 47.8 °F 97% 30.24 in 5.0 mi Calm Calm - N/A   Overcast
10:35 PM 47.3 °F - 47.1 °F 99% 30.24 in 4.0 mi Calm Calm - N/A   Overcast
10:55 PM 46.9 °F - 46.9 °F 100% 30.24 in 4.0 mi ENE 3.5 mph - N/A   Overcast
11:15 PM 46.9 °F - 46.9 °F 100% 30.23 in 3.0 mi East 3.5 mph - N/A   Mostly Cloudy
11:35 PM 45.7 °F 44.4 °F 45.7 °F 100% 30.23 in 2.0 mi ENE 3.5 mph - N/A   Clear
11:55 PM 44.1 °F - 44.1 °F 100% 30.22 in 0.8 mi Calm Calm - N/A   Mostly Cloudy